• In Czech Republic
  • List of Countries
  • For 7 days
  • Water Temperature
  • Satellite Maps
  • Weather Map
  • Weather Widgets
  • user-avatar
    Login

    Hourly Weather Zarechnaya

    Today, 24 September, Monday

    Time Temperature Precipitation Wind Pressure Humidity
    00:00 +9°C° 2.8 mm 6 mps 746 mmHg 87%
    01:00 +9°C° 0.2 mm 5 mps 747 mmHg 87%
    02:00 +9°C° 0.2 mm 5 mps 747 mmHg 87%
    03:00 +10°C° 0 mm 4 mps 746 mmHg 87%
    04:00 +8°C° 0 mm 4 mps 747 mmHg 89%
    05:00 +8°C° 0 mm 4 mps 747 mmHg 91%
    06:00 +8°C° 0 mm 4 mps 747 mmHg 92%
    07:00 +10°C° 0 mm 3 mps 748 mmHg 88%
    08:00 +11°C° 0 mm 3 mps 748 mmHg 83%
    09:00 +12°C° 0 mm 3 mps 748 mmHg 76%
    10:00 +13°C° 0 mm 3 mps 748 mmHg 70%
    11:00 +14°C° 0 mm 3 mps 748 mmHg 63%
    12:00 +16°C° 0 mm 3 mps 749 mmHg 56%
    13:00 +17°C° 0 mm 3 mps 748 mmHg 53%
    14:00 +17°C° 0 mm 3 mps 748 mmHg 50%
    15:00 +17°C° 0 mm 3 mps 748 mmHg 47%
    16:00 +17°C° 0 mm 3 mps 747 mmHg 51%
    17:00 +16°C° 0 mm 3 mps 747 mmHg 55%
    18:00 +14°C° 0 mm 3 mps 746 mmHg 59%
    19:00 +13°C° 0 mm 4 mps 746 mmHg 57%
    20:00 +13°C° 0 mm 4 mps 746 mmHg 56%
    21:00 +13°C° 0 mm 5 mps 746 mmHg 55%
    22:00 +13°C° 0 mm 6 mps 745 mmHg 53%
    23:00 +13°C° 0 mm 6 mps 744 mmHg 52%

    Tomorrow, 25 September, Tuesday

    Time Temperature Precipitation Wind Pressure Humidity
    00:00 +12°C° 0 mm 7 mps 744 mmHg 50%
    01:00 +12°C° 0.1 mm 7 mps 743 mmHg 51%
    02:00 +12°C° 0.1 mm 7 mps 743 mmHg 53%
    03:00 +12°C° 0.1 mm 7 mps 742 mmHg 54%
    04:00 +12°C° 0.3 mm 7 mps 742 mmHg 62%
    05:00 +11°C° 0.3 mm 7 mps 741 mmHg 71%
    06:00 +11°C° 0.3 mm 7 mps 741 mmHg 79%
    07:00 +11°C° 0.9 mm 6 mps 741 mmHg 82%
    08:00 +10°C° 0.9 mm 6 mps 741 mmHg 85%
    09:00 +10°C° 0.9 mm 6 mps 741 mmHg 88%
    10:00 +10°C° 0.8 mm 5 mps 742 mmHg 84%
    11:00 +10°C° 0.8 mm 5 mps 742 mmHg 80%
    12:00 +10°C° 0.8 mm 5 mps 743 mmHg 76%
    13:00 +10°C° 0 mm 5 mps 743 mmHg 73%
    14:00 +10°C° 0 mm 5 mps 744 mmHg 70%
    15:00 +10°C° 0 mm 5 mps 744 mmHg 67%
    16:00 +10°C° 0 mm 5 mps 745 mmHg 69%
    17:00 +11°C° 0 mm 4 mps 745 mmHg 70%
    18:00 +11°C° 0 mm 4 mps 745 mmHg 72%
    19:00 +10°C° 0 mm 4 mps 746 mmHg 74%
    20:00 +8°C° 0 mm 4 mps 747 mmHg 77%
    21:00 +8°C° 0 mm 4 mps 747 mmHg 79%
    22:00 +7°C° 0 mm 4 mps 747 mmHg 82%
    23:00 +7°C° 0 mm 4 mps 748 mmHg 84%

    Day after tomorrow, 26 September, Wednesday

    Time Temperature Precipitation Wind Pressure Humidity
    00:00 +6°C° 0 mm 4 mps 748 mmHg 86%
    01:00 +6°C° 0 mm 4 mps 748 mmHg 87%
    02:00 +5°C° 0 mm 4 mps 749 mmHg 87%
    03:00 +5°C° 0 mm 4 mps 749 mmHg 88%
    04:00 +5°C° 0 mm 4 mps 750 mmHg 89%
    05:00 +4°C° 0 mm 4 mps 750 mmHg 90%
    06:00 +4°C° 0 mm 4 mps 751 mmHg 91%
    07:00 +5°C° 0 mm 4 mps 751 mmHg 86%
    08:00 +6°C° 0 mm 4 mps 752 mmHg 81%
    09:00 +7°C° 0 mm 5 mps 753 mmHg 75%
    10:00 +8°C° 0 mm 5 mps 753 mmHg 71%
    11:00 +9°C° 0 mm 5 mps 753 mmHg 66%
    12:00 +10°C° 0 mm 5 mps 754 mmHg 62%
    13:00 +10°C° 0 mm 5 mps 754 mmHg 60%
    14:00 +10°C° 0 mm 5 mps 754 mmHg 59%
    15:00 +10°C° 0 mm 5 mps 755 mmHg 58%
    16:00 +10°C° 0 mm 4 mps 755 mmHg 61%
    17:00 +9°C° 0 mm 3 mps 755 mmHg 64%
    18:00 +8°C° 0 mm 2 mps 755 mmHg 67%
    19:00 +8°C° 0 mm 2 mps 755 mmHg 68%
    20:00 +7°C° 0 mm 2 mps 756 mmHg 69%
    21:00 +6°C° 0 mm 2 mps 756 mmHg 71%
    22:00 +5°C° 0 mm 3 mps 756 mmHg 71%
    23:00 +4°C° 0 mm 3 mps 756 mmHg 71%

    27 September, Thursday

    Time Temperature Precipitation Wind Pressure Humidity
    00:00 +4°C° 0 mm 3 mps 755 mmHg 71%
    01:00 +4°C° 0 mm 3 mps 755 mmHg 71%
    02:00 +4°C° 0 mm 3 mps 755 mmHg 71%
    03:00 +4°C° 0 mm 4 mps 755 mmHg 72%
    04:00 +4°C° 0 mm 4 mps 754 mmHg 71%
    05:00 +3°C° 0 mm 5 mps 754 mmHg 70%
    06:00 +3°C° 0 mm 5 mps 753 mmHg 69%
    07:00 +4°C° 0 mm 6 mps 753 mmHg 66%
    08:00 +5°C° 0 mm 7 mps 752 mmHg 62%
    09:00 +5°C° 0 mm 8 mps 752 mmHg 59%
    10:00 +6°C° 0.2 mm 9 mps 751 mmHg 60%
    11:00 +6°C° 0.2 mm 9 mps 751 mmHg 60%
    12:00 +6°C° 0.2 mm 10 mps 750 mmHg 61%
    13:00 +6°C° 0.5 mm 9 mps 750 mmHg 64%
    14:00 +6°C° 0.5 mm 9 mps 749 mmHg 68%
    15:00 +6°C° 0.5 mm 9 mps 749 mmHg 71%
    16:00 +6°C° 0.2 mm 8 mps 748 mmHg 73%
    17:00 +6°C° 0.2 mm 8 mps 748 mmHg 75%
    18:00 +6°C° 0.2 mm 8 mps 748 mmHg 78%
    19:00 +6°C° 0.1 mm 7 mps 748 mmHg 79%
    20:00 +8°C° 0.1 mm 7 mps 747 mmHg 81%
    21:00 +8°C° 0.1 mm 7 mps 747 mmHg 82%
    22:00 +8°C° 0.5 mm 7 mps 747 mmHg 84%
    23:00 +8°C° 0.5 mm 6 mps 747 mmHg 85%

    28 September, Friday

    Time Temperature Precipitation Wind Pressure Humidity
    00:00 +8°C° 0.5 mm 6 mps 747 mmHg 86%
    01:00 +8°C° 0.2 mm 6 mps 747 mmHg 87%
    02:00 +8°C° 0.2 mm 6 mps 746 mmHg 88%
    03:00 +8°C° 0.2 mm 5 mps 746 mmHg 88%
    04:00 +9°C° 0.1 mm 5 mps 747 mmHg 89%
    05:00 +9°C° 0.1 mm 5 mps 747 mmHg 90%
    06:00 +10°C° 0.1 mm 4 mps 747 mmHg 92%
    07:00 +10°C° 0.1 mm 4 mps 747 mmHg 91%
    08:00 +9°C° 0.1 mm 5 mps 747 mmHg 90%
    09:00 +10°C° 0.1 mm 5 mps 746 mmHg 90%
    10:00 +11°C° 0.1 mm 6 mps 746 mmHg 88%
    11:00 +13°C° 0.1 mm 6 mps 746 mmHg 86%
    12:00 +14°C° 0.1 mm 7 mps 746 mmHg 84%
    13:00 +14°C° 0 mm 7 mps 746 mmHg 80%
    14:00 +15°C° 0 mm 8 mps 745 mmHg 76%
    15:00 +15°C° 0 mm 8 mps 745 mmHg 73%
    16:00 +15°C° 0 mm 7 mps 745 mmHg 74%
    17:00 +14°C° 0 mm 7 mps 745 mmHg 76%
    18:00 +14°C° 0 mm 6 mps 744 mmHg 78%
    19:00 +14°C° 0 mm 6 mps 745 mmHg 79%
    20:00 +12°C° 0 mm 7 mps 745 mmHg 81%
    21:00 +12°C° 0 mm 7 mps 745 mmHg 82%
    22:00 +11°C° 0.1 mm 6 mps 745 mmHg 83%
    23:00 +12°C° 0.1 mm 5 mps 746 mmHg 85%

    29 September, Saturday

    Time Temperature Precipitation Wind Pressure Humidity
    00:00 +12°C° 0.1 mm 5 mps 746 mmHg 86%
    01:00 +11°C° 0 mm 4 mps 747 mmHg 86%
    02:00 +11°C° 0 mm 3 mps 747 mmHg 85%
    03:00 +10°C° 0 mm 2 mps 747 mmHg 85%
    04:00 +10°C° 0 mm 2 mps 748 mmHg 86%
    05:00 +9°C° 0 mm 2 mps 748 mmHg 88%
    06:00 +8°C° 0 mm 2 mps 749 mmHg 89%
    07:00 +9°C° 0 mm 2 mps 749 mmHg 83%
    08:00 +9°C° 0 mm 2 mps 750 mmHg 78%
    09:00 +10°C° 0 mm 2 mps 750 mmHg 72%
    10:00 +12°C° 0 mm 2 mps 750 mmHg 68%
    11:00 +13°C° 0 mm 2 mps 750 mmHg 63%
    12:00 +14°C° 0 mm 2 mps 750 mmHg 58%
    13:00 +14°C° 0 mm 2 mps 750 mmHg 59%
    14:00 +15°C° 0 mm 2 mps 750 mmHg 60%
    15:00 +15°C° 0 mm 2 mps 749 mmHg 61%
    16:00 +14°C° 0 mm 2 mps 749 mmHg 65%
    17:00 +14°C° 0 mm 1 mps 749 mmHg 70%
    18:00 +13°C° 0 mm 1 mps 749 mmHg 75%
    19:00 +13°C° 0 mm 1 mps 749 mmHg 77%
    20:00 +12°C° 0 mm 2 mps 749 mmHg 79%
    21:00 +12°C° 0 mm 2 mps 749 mmHg 81%
    22:00 +12°C° 0.8 mm 2 mps 749 mmHg 84%
    23:00 +10°C° 0.8 mm 2 mps 749 mmHg 87%
    Show more